Home > Weather > Enschede > Past weeks

Flag for Netherlands Past Weather in Enschede, Netherlands — Yesterday and Last 2 Weeks

Now
72 °F

Mild.


Feels Like: 75 °F
Forecast: 61 / 86 °F
Wind: 7 mph from East

Location: Deelen

Current Time: Aug 23, 2016 at 11:13:35 PM

Latest Report: Aug 23, 2016 at 10:25 PM


Visibility: N/A

Pressure: 30.24 "Hg

Humidity: 65%

Dew Point: 59 °F

Location of EnschedeLocation

Past Weather in Enschede — Graph

°F

Enschede Temperature Yesterday

Maximum temperature yesterday: 72 °F (at 6:55 PM)
Minimum temperature yesterday: 57 °F (at 2:25 AM)
Average temperature yesterday: 62 °F

High & Low Weather Summary for the Past Weeks

 TemperatureHumidityPressure
High81 °F (Aug 23, 3:55 PM)100% (Aug 9, 9:55 PM)30.30 "Hg (Aug 9, 9:55 PM)
Low43 °F (Aug 11, 1:25 AM)34% (Aug 17, 3:55 PM)29.77 "Hg (Aug 19, 2:55 PM)
Average62 °F78%30.08 "Hg
* Reported Aug 8 9:25 PM — Aug 23 9:55 PM, Enschede, Weather by CustomWeather, © 2016

Note: Actual official high and low records may vary slightly from our data, if they occured in-between our weather recording intervals... More about our weather records

Advertising

Enschede Weather History for the Previous 24 Hours

Scroll right to see more
 ConditionsComfort  
Time TempWeatherWind HumidityBarometerVisibility
9:55 PM
Tue, Aug 23
72 °FMild.6 mph65%30.24 "HgN/A
9:25 PM72 °FMild.5 mph69%30.24 "HgN/A
8:55 PM73 °FMild.5 mph65%30.24 "HgN/A
8:25 PM73 °FMild.5 mph65%30.24 "HgN/A
7:55 PM77 °FWarm.6 mph61%30.24 "HgN/A
7:25 PM79 °FWarm.5 mph54%30.24 "HgN/A
6:55 PM81 °FWarm.6 mph48%30.24 "HgN/A
6:25 PM81 °FWarm.6 mph51%30.24 "HgN/A
5:55 PM81 °FPassing clouds.5 mph45%30.24 "HgN/A
5:25 PM81 °FPassing clouds.3 mph45%30.24 "HgN/A
4:55 PM81 °FWarm.2 mph42%30.27 "HgN/A
4:25 PM81 °FWarm.3 mph42%30.27 "HgN/A
3:55 PM81 °FWarm.5 mph42%30.27 "HgN/A
3:25 PM79 °FWarm.5 mph45%30.27 "HgN/A
2:55 PM79 °FPleasantly warm.5 mph39%30.27 "HgN/A
2:25 PM79 °FPassing clouds.6 mph39%30.27 "HgN/A
1:55 PM79 °FPleasantly warm.3 mph37%30.30 "HgN/A
1:25 PM77 °FPleasantly warm.6 mph36%30.30 "HgN/A
12:55 PM75 °FPassing clouds.6 mph39%30.30 "HgN/A
12:25 PM75 °FPassing clouds.6 mph41%30.30 "HgN/A
11:55 AM73 °FPassing clouds.7 mph47%30.30 "HgN/A
11:25 AM73 °FMild.6 mph47%30.30 "HgN/A
10:55 AM72 °FMild.7 mph57%30.30 "HgN/A
10:25 AM70 °FMild.5 mph64%30.30 "HgN/A
9:55 AM68 °FMild.3 mph69%30.30 "HgN/A
9:25 AM66 °FMild.3 mph73%30.30 "HgN/A
8:55 AM64 °FMild.2 mph73%30.30 "HgN/A
8:25 AM63 °FPassing clouds.3 mph77%30.30 "HgN/A
7:55 AM59 °FPassing clouds.5 mph88%30.30 "HgN/A
7:25 AM59 °FCool.2 mph82%30.30 "HgN/A
6:55 AM57 °FPassing clouds.3 mph88%30.30 "HgN/A
6:25 AM57 °FPassing clouds.2 mph94%30.30 "HgN/A
5:55 AM59 °FPartly cloudy.3 mph94%30.27 "HgN/A
5:25 AM59 °FPassing clouds.2 mph94%30.27 "HgN/A
4:55 AM59 °FPassing clouds.3 mph94%30.27 "HgN/A
4:25 AM61 °FOvercast.2 mph88%30.27 "HgN/A
3:55 AM61 °FMostly cloudy.3 mph88%30.27 "HgN/A
3:25 AM59 °FMostly cloudy.5 mph88%30.27 "HgN/A
2:55 AM57 °FOvercast.3 mph94%30.27 "HgN/A
2:25 AM55 °FPassing clouds.2 mph94%30.27 "HgN/A
1:55 AM57 °FPassing clouds.1 mph94%30.27 "HgN/A
1:25 AM55 °FPassing clouds.3 mph94%30.27 "HgN/A
12:55 AM57 °FCool.1 mph88%30.27 "HgN/A
12:25 AM57 °FPassing clouds.1 mph94%30.27 "HgN/A
11:55 PM
Mon, Aug 22
57 °FPassing clouds.1 mph94%30.27 "HgN/A
11:25 PM59 °FCool.2 mph88%30.27 "HgN/A
Weather by CustomWeather, © 2016

See weather overviewHow to use our weather pages